Find Starlink 30221

NORAD ID: 57418 Int'l Des: 2023-102 Owner: SPXS Country: US Constellation: starlink operational
LEOCIRCULAR

当前视图

正在加载3D地球...

About Starlink 30221

Starlink 30221 (NORAD 57418) is a starlink constellation satellite (v2 mini) launched Jul 19, 2023 by SPXS of US. It operates in LEO, CIRCULAR orbit with a mass of 730.00 kg.

关于 Starlink 30221

正在加载描述...

即将过境

Passes for default location (London). Set your location on the main map for personalized predictions.

高度历史

Loading altitude history...

两行轨道根数

1 57418U 23102Q 26169.05092311 -.00000344 00000-0 -29545-5 0 9991
2 57418 43.0082 49.0695 0002269 272.7050 87.3542 15.27574070161509
Epoch: Jun 18, 2026 • Age: 14 hours

当前状态

高度 490.8 km
速度 7.62 km/s
星下点 -32.13°S, 139.31°E
发射日期 Jul 19, 2023
运行时间 2.9 years
类型 internet

技术详情

分类 Payload
质量 730.00 kg
干质量 700.00 kg
总质量 730.00 kg
长度 0.30 m
直径 4.10 m
跨度 29.00 m
形状 Box + pan
制造商 SPXS
平台类型 Starlink V2M
阶段状态 In Orbit
所有者/国家 SPXS/US

Most Searched